Davisburg, Kentucky
Current Conditions -  °F | °C
As of 6:15 AM on Friday 24 Oct 2014 (Local Time) from K1A6 Reporting Station
Haze Haze  
Wind Chill: 41°   Ceiling: 200
Heat Index: 41°   Visibility: 1.2mi
Dew Point: 41°   Wind: 0mph
Humidity: 100%   Direction: NA
Pressure: 30.14"   Gusts: NA
Location:  36.7417°N, 83.6911°W
Report Text: K1A6 241015Z AUTO 00000KT 1 1/4SM BR OVC002 05/05 A3014 RMK AO2 T00500050
Loading
Personal Weather Stations






























Interactive Weather Map
Tropical Storm Tracking
New forecast layout! Learn more

10-Day Weather Forecast

Advertisements
Track Severe Weather on mobile